Location: Alpha Ridge Park
(39.3209°N, 76.9128°W)
Time: 08:51:38
(UTC-04:00)

AO-92 - Pass Details

Date: 09 July 2022
Orbit: 469 x 481 km, 97.4° (Epoch: 13 August)

Event Time Altitude Azimuth Distance (km) Brightness Sun altitude
Exits shadow 23:07:52 66° 44° (NE) 531 ? -21.8°
Drops below altitude 10° 23:11:11 10° 353° (N) 1,668 ? -22.2°
Sets 23:13:16 0° 351° (N) 2,554 ? -22.4°
